Yakutat, AK

10:59 AM AKDT on March 30, 2017 (GMT -0800)
Yakutat

Weather History for PAYA - December, 2012

Change the Weather History Date:

Sunday, December 23, 2012

  Actual Average Record
Temperature  
Mean Temperature 15 °F 29 °F  
Max Temperature 24 °F 35 °F 46 °F (1960)
Min Temperature 6 °F 24 °F -11 °F (1972)
Degree Days  
Heating Degree Days 50 36  
Month to date heating degree days 955 808  
Since 1 July heating degree days 4092 3706  
Cooling Degree Days 0    
Month to date cooling degree days 0  
Year to date cooling degree days 0  
Moisture  
Dew Point 6 °F    
Average Humidity 0    
Maximum Humidity 0    
Minimum Humidity 0    
Precipitation  
Precipitation 0.00 in 0.52 in 6.70 in (1999)
Month to date precipitation 4.69 12.16  
Year to date precipitation 105.26 151.00  
Snow  
Snow 0.00 in 0.70 in 6.80 in (1959)
Month to date snowfall 23.1 16.7  
Since 1 July snowfall 49.0 37.4  
Snow Depth 11.00 in    
Sea Level Pressure  
Sea Level Pressure 29.71 in    
Wind  
Wind Speed 1 mph (ESE)    
Max Wind Speed 7 mph    
Max Gust Speed 8 mph    
Visibility 10 miles    
Events      
T = Trace of Precipitation, MM = Missing Value Source: NWS Daily Summary

Daily Weather History Graph

Daily Weather History Graph

Search for Another Location

Airport or City:

Trip Planner

Search our weather history database for the weather conditions in past years. The results will help you decide how hot, cold, wet, or windy it might be!

Date:

Astronomy

Dec. 23, 2012 Rise Set
Actual Time 9:17 AM AKST 3:19 PM AKST
Civil Twilight 8:20 AM AKST 4:15 PM AKST
Nautical Twilight 7:25 AM AKST 5:11 PM AKST
Astronomical Twilight 6:34 AM AKST 6:01 PM AKST
Moon 12:46 PM AKST (12/23) 4:31 AM AKST (12/23)
Length of Visible Light 7h 54m
Length of Day
6h 02m
Waxing Gibbous, 82% of the Moon is Illuminated
Dec 23
Waxing Gibbous
Dec 28
Full
Jan 4
Last Quarter
Jan 11
New
Jan 18
First Quarter

Hourly Weather History & Observations

Time (AKST) Temp. Windchill Dew Point Humidity Pressure Visibility Wind Dir Wind Speed Gust Speed Precip Events Conditions
12:53 AM 8.1 °F - 3.0 °F 80% 29.71 in 10.0 mi Calm Calm - N/A   Overcast
1:53 AM 9.0 °F - 3.9 °F 80% 29.71 in 10.0 mi Calm Calm - N/A   Overcast
3:53 AM 10.9 °F - 5.0 °F 77% 29.72 in 10.0 mi Calm Calm - N/A   Overcast
4:53 AM 10.9 °F - 5.0 °F 77% 29.72 in 10.0 mi Calm Calm - N/A   Overcast
5:53 AM 10.9 °F - 6.1 °F 81% 29.71 in 10.0 mi Calm Calm - N/A   Overcast
6:53 AM 14.0 °F 8.2 °F 7.0 °F 74% 29.72 in 10.0 mi SE 3.5 mph - N/A   Overcast
7:53 AM 12.0 °F - 6.1 °F 77% 29.72 in 10.0 mi Calm Calm - N/A   Partly Cloudy
8:53 AM 9.0 °F - 5.0 °F 84% 29.73 in 10.0 mi Calm Calm - N/A   Scattered Clouds
9:53 AM 10.9 °F - 6.1 °F 81% 29.73 in 10.0 mi Calm Calm - N/A   Mostly Cloudy
10:53 AM 15.1 °F - 6.1 °F 68% 29.73 in 10.0 mi Calm Calm - N/A   Mostly Cloudy
11:53 AM 18.0 °F - 6.1 °F 60% 29.72 in 10.0 mi Calm Calm - N/A   Mostly Cloudy
12:53 PM 19.9 °F 14.9 °F 5.0 °F 52% 29.72 in 10.0 mi ESE 3.5 mph - N/A   Partly Cloudy
1:53 PM 19.9 °F - 3.9 °F 50% 29.72 in 10.0 mi Calm Calm - N/A   Partly Cloudy
2:53 PM 18.0 °F 12.7 °F 5.0 °F 57% 29.72 in 10.0 mi ESE 3.5 mph - N/A   Scattered Clouds
3:53 PM 17.1 °F - 5.0 °F 59% 29.72 in 10.0 mi Calm Calm - N/A   Mostly Cloudy
4:53 PM 19.0 °F 13.9 °F 6.1 °F 57% 29.72 in 10.0 mi ENE 3.5 mph - N/A   Mostly Cloudy
5:53 PM 19.0 °F - 6.1 °F 57% 29.71 in 10.0 mi Calm Calm - N/A   Overcast
6:53 PM 16.0 °F - 5.0 °F 62% 29.70 in 10.0 mi Calm Calm - N/A   Partly Cloudy
7:53 PM 16.0 °F - 6.1 °F 65% 29.70 in 10.0 mi Calm Calm - N/A   Overcast
8:53 PM 15.1 °F - 8.1 °F 74% 29.70 in 10.0 mi Calm Calm - N/A   Mostly Cloudy
9:53 PM 15.1 °F - 8.1 °F 74% 29.69 in 10.0 mi Calm Calm - N/A   Overcast
10:53 PM 18.0 °F 12.7 °F 10.0 °F 71% 29.70 in 10.0 mi Variable 3.5 mph - N/A   Overcast
11:53 PM 24.1 °F 18.2 °F 12.0 °F 60% 29.70 in 10.0 mi East 4.6 mph - N/A   Overcast